Погода в Королях

Россия / Амурская область     50°28′27″N   129°01′16″E
темп.,
°C
ветер,
м/с
пор.,
м/с
влажн.,
%
обл.,
%
осадки,
мм/ч
давл.,
гПа
погр.,
м
7 мая, пт
пт700:00+6ссз23765 0.0 100139
03:00+5сз11785 0.0 100110
06:00+6ссв117497 0.0 100116
09:00+8в1261100 0.0 1001404
12:00+12св3445100 0.1 9981747
15:00+14ссв4537100 0.1 9962129
18:00+13ссв5742100 0.0 9951290
21:00+10св6114796 0.0 995567
8 мая, сб
сб800:00+8св61142100 0.0 995499
03:00+5ссв595594 0.0 995346
06:00+4с5961100 0.0 996400
09:00+7с4551100 0.0 996800
12:00+10ссв5643100 0.0 9961519
15:00+12св5643100 0.0 9951939
18:00+7вюв4382100 0.9 998953
21:00+5в3489100 1.7 999688
9 мая, вс
вс900:00+5св4690100 0.2 999729
03:00+6ссв4787100 0.5 998934
06:00+5ссв5785100 0.3 999772
09:00+6ссв5778100 0.5 1000978
12:00+6св4676100 0.6 1001923
15:00+6св3486100 1.2 1002523
18:00+7в2378100 0.2 1003680
21:00+6ююв2291100 0.5 1005147
10 мая, пн
пн1000:00+5ю1193100 0.4 1006114
03:00+5вюв1192100 0.6 100745
06:00+5юв1292100 0.3 1008129
09:00+6ю2389100 0.4 1009288
12:00+7ю1285100 0.1 1010544
15:00+8ю2279100 0.1 1011804
18:00+8ююв2380100 0.1 1011324
21:00+7зюз2387100 0.2 1013133
11 мая, вт
вт1100:00+6юз1290100 0.0 101374
03:00+5ююз2292100 0.0 1014115
06:00+5ююз2391100 0.0 1014159
09:00+7ю237799 0.0 1014458
12:00+12ююв3455100 0.0 10131514
15:00+11ююв4559100 0.1 10131105
18:00+11юв566186 0.1 10131080
21:00+7юв510845 0.1 1014368